Location: Camp Tanglefoot
(43.1125°N, 93.4438°W)
Time: 16:31:41
(UTC+00:00)

Daily predictions for brighter satellites

Satellite Brightness Start Highest point End
(mag) Time Altitude Azimuth Time Altitude Azimuth Time Altitude Azimuth
Cosmos 1743 Rocket 3.4 12:00:05 10° SSW 12:04:27 78° W 12:08:49 10° N
CZ-4B R/B 3.0 12:04:16 10° NNE 12:07:49 64° E 12:11:27 10° S
SJ 16-02 1.5 12:04:17 10° SW 12:08:30 46° WNW 12:12:43 10° N
USA 215 3.5 12:02:21 10° ESE 12:08:50 69° NE 12:14:28 14° NW
Cosmos 1607 4.2 12:05:10 12° NNW 12:11:07 70° NE 12:17:13 10° SE
Meteor 2-15 Rocket 4.5 12:06:28 10° NNW 12:12:24 56° W 12:18:17 10° S
Cosmos 1515 Rocket 4.1 12:10:59 16° NNW 12:13:55 35° W 12:17:52 10° SSW
DELTA 2 R/B (1) 4.0 12:12:08 18° W 12:16:11 55° S 12:21:35 10° ESE
Cosmos 2228 Rocket 3.1 12:15:04 10° N 12:19:36 90° SSE 12:24:09 10° S
Meteor 1-27 Rocket 3.9 12:14:18 10° NNW 12:19:48 51° W 12:25:22 10° SSW
Meteor 1-31 Rocket 3.7 12:18:41 10° NNW 12:21:59 26° WNW 12:25:16 10° SW
Lacrosse 4 Rocket 3.7 12:22:21 10° N 12:25:44 20° NE 12:29:06 10° E
SL-27 R/B 4.0 12:27:43 17° W 12:28:12 17° W 12:30:34 10° SW
FALCON 9 DEB 4.4 12:29:23 13° NNW 12:31:17 24° NNE 12:33:40 10° E
Cosmos 1500 Rocket 4.1 12:27:15 10° SW 12:31:24 38° WNW 12:35:36 10° N
Sich 1 2.9 12:27:32 10° S 12:31:49 81° W 12:36:06 10° N
BREEZE M DEB (TANK) 3.0 12:30:21 16° NW 12:32:18 31° N 12:34:13 10° ENE
FALCON 9 DEB 4.5 12:30:36 13° NNW 12:32:31 22° NNE 12:34:51 10° ENE
SL-4 R/B 1.6 12:29:09 10° WSW 12:32:40 87° NNW 12:36:25 10° ENE
Cosmos 2297 Rocket 2.7 12:27:23 10° NNW 12:33:00 60° ENE 12:38:36 10° SE
NOAA 12 4.0 12:27:47 10° NNE 12:33:04 80° WNW 12:38:17 10° SSW
Cosmos 1939 Rocket 2.7 12:30:35 10° N 12:34:30 84° WNW 12:38:21 10° SSW
CZ-4B R/B 2.5 12:31:49 10° SSE 12:34:58 44° ENE 12:38:05 10° N
Cosmos 2369 Rocket 4.0 12:35:27 10° NW 12:36:02 11° NW 12:37:14 10° NNW
Nadezhda 4 Rocket 4.5 12:32:26 10° SW 12:38:06 37° WNW 12:43:51 10° N
Cosmos 1538 Rocket 4.2 12:33:52 10° NNW 12:38:53 49° WSW 12:43:50 10° S
ADEOS 4.0 12:34:46 10° N 12:39:38 40° WNW 12:44:28 10° SW
Okean 1 3.2 12:37:29 10° NNW 12:41:27 77° W 12:45:22 10° S
CZ-2C R/B 3.9 12:37:30 10° SW 12:41:35 21° W 12:45:37 10° NW
Meteor 1-25 Rocket 4.3 12:36:38 10° SSW 12:42:09 58° WNW 12:47:39 10° N
H-2A R/B 2.1 12:38:31 10° S 12:42:47 68° WSW 12:47:12 10° NNW
Cosmos 1805 Rocket 3.8 12:39:44 10° SSW 12:43:56 46° WNW 12:48:10 10° N
Cosmos 1707 Rocket 3.7 12:41:35 10° N 12:46:03 83° E 12:50:30 10° S
BREEZE-M DEB 3.9 12:45:11 10° WSW 12:48:42 74° NNW 13:01:00 10° ENE
PSLV R/B 4.4 12:45:30 10° SSE 12:49:30 62° ENE 12:53:34 10° N
Cosmos 2263 Rocket 4.5 12:47:39 10° N 12:50:53 15° NE 12:54:08 10° E
Cosmos 1602 4.4 12:47:55 10° SW 12:51:20 32° WNW 12:54:47 10° NNW
CORIOLIS 4.2 12:50:32 10° NNE 12:56:01 88° WNW 13:01:27 10° SSW
Geosat FO 4.4 12:54:03 10° SSE 12:57:21 88° NE 13:00:42 10° NNW
GENESIS II 4.4 12:53:59 10° NW 12:57:52 55° WSW 13:01:45 10° SSE
Cosmos 1092 Rocket 4.3 12:52:15 10° SSW 12:58:12 45° WNW 13:04:15 10° N
Cosmos 1680 Rocket 3.7 12:53:24 10° NNW 12:58:43 82° ENE 13:03:58 10° SSE
Cosmos 1862 Rocket 4.0 12:55:11 10° N 12:59:30 67° E 13:03:49 10° SSE
AQUARIUS 4.1 12:56:04 10° N 13:00:33 69° WNW 13:05:01 10° SSW
FALCON 9 DEB 4.3 12:58:14 10° NW 13:00:43 25° NNE 13:03:12 10° E
H-2A R/B 2.4 12:56:34 10° NNE 13:01:29 68° ESE 13:06:25 10° S
Cosmos 1500 3.7 12:58:46 10° SW 13:02:18 36° WNW 13:05:50 10° N
Cosmos 1656 3.6 12:59:34 10° SSW 13:04:58 67° WNW 13:10:25 10° NNE
Cosmos 1833 Rocket 3.4 23:01:37 10° SW 23:07:06 54° WNW 23:12:39 10° NNE
NOAA 11 4.5 23:04:23 10° S 23:09:49 77° WSW 23:15:16 10° NNW
Cosmos 2278 3.9 23:05:25 10° NNW 23:10:57 48° ENE 23:16:26 10° SE
Cosmos 44 Rocket 4.0 23:07:14 10° NNW 23:11:40 33° NE 23:15:59 10° ESE
SL-24 R/B - RUBIN 2 3.5 23:11:26 10° NW 23:15:56 89° NE 23:20:14 10° SSE
CZ-2D R/B 4.4 23:13:00 10° ESE 23:16:04 23° ENE 23:19:07 10° NNE
CZ-2C R/B 3.9 23:13:55 10° NE 23:17:41 20° E 23:21:25 10° SE
ISS -3.4 23:14:40 10° WNW 23:18:04 72° SW 23:21:26 10° SE
Cosmos 1939 Rocket 2.9 23:16:58 10° SSE 23:21:00 60° ENE 23:24:59 10° N
Cosmos 1814 Rocket 4.0 23:16:26 10° S 23:21:36 65° ESE 23:26:43 10° NNE
Cosmos 1666 3.2 23:20:16 10° N 23:23:43 35° ENE 23:27:09 10° SE
Cosmos 1782 2.8 23:20:27 10° S 23:24:26 90° NW 23:28:26 10° N
USA 306 4.2 23:21:18 10° NW 23:24:48 24° NNE 23:27:55 12° ENE
Meteor 1-14 Rocket 4.5 23:20:52 10° N 23:26:38 54° ENE 23:32:27 10° SSE
Cosmos 1151 Rocket 3.3 23:23:16 10° SSE 23:27:26 49° E 23:31:39 10° NNE
COSMOS 2406 4.1 23:22:42 10° SW 23:28:15 49° WNW 23:33:49 10° NNE
Cosmos 1570 Rocket 4.0 23:24:06 10° S 23:29:16 65° ESE 23:34:28 10° NNE
Cosmos 1633 Rocket 3.4 23:26:57 10° N 23:31:09 42° ENE 23:35:19 10° SSE
CZ-2C R/B 3.2 23:28:02 10° SW 23:31:33 24° S 23:34:59 10° ESE
COSMO-SKYMED 1 3.8 23:28:30 10° NE 23:31:55 22° E 23:35:18 10° SE
APEX 4.0 23:33:33 10° S 23:36:57 29° ESE 23:38:59 16° ENE
Tiangong 3.6 23:35:52 10° SSE 23:36:59 11° SSE 23:38:06 10° SE
Meteor 2-16 Rocket 4.5 23:31:03 10° N 23:37:07 60° ENE 23:43:09 10° SSE
CZ-4B R/B 3.7 23:35:06 10° SE 23:39:55 35° ENE 23:44:42 10° N
X-37B 1.3 23:38:14 10° SW 23:40:57 38° SSE 23:42:42 18° E
Cosmos 1900 4.3 23:38:25 10° SSW 23:43:17 90° W 23:48:08 10° NNE
USA 307 4.0 23:41:58 10° NW 23:45:37 27° NNE 23:47:43 18° ENE
Lacrosse 5 rocket 1.3 23:43:34 10° NW 23:47:26 55° NE 23:51:31 10° ESE
MOS 1-B 4.4 23:44:23 10° SSE 23:50:02 58° ENE 23:55:42 10° N
Meteor 2-6 Rocket 4.2 23:46:22 10° S 23:52:00 64° E 23:57:31 10° NNE
Cosmos 1544 3.8 23:49:36 10° NNE 23:52:48 29° ENE 23:55:59 10° SE
Cosmos 2360 Rocket 3.3 23:49:41 10° N 23:54:01 22° NE 23:55:40 19° ENE
Cosmos 1812 3.1 23:52:16 10° SSW 23:56:04 64° W 23:59:55 10° N
